Home   Weather   Dover   Past weeks
Flag for USA

Past Weather in Dover, Delaware, USA — Yesterday and Last 2 Weeks

Now
62 °F

Heavy rain. Low clouds.


Feels Like: 62 °F
Forecast: 74 / 54 °F
Wind: 5 mph from North

Location: Dover Air Force Base

Current Time: Oct 14, 2019 at 12:43:03 am

Latest Report: Oct 13, 2019 at 11:56 pm


Visibility: 4 mi

Pressure: 29.99 "Hg

Humidity: 100%

Dew Point: 62 °F

Location of DoverLocation

Past Weather in Dover — Graph

°F

Dover Temperature Yesterday

Maximum temperature yesterday: 64 °F (at 11:56 am)
Minimum temperature yesterday: 53 °F (at 4:56 am)
Average temperature yesterday: 60 °F

High & Low Weather Summary for the Past Weeks

 TemperatureHumidityPressure
High96 °F (Oct 2, 2:56 pm)100% (Sep 29, 3:04 am)30.44 "Hg (Sep 29, 3:04 am)
Low47 °F (Oct 12, 6:56 am)31% (Oct 2, 1:56 pm)29.81 "Hg (Oct 2, 4:56 pm)
Average66 °F71%30.13 "Hg
* Reported Sep 28 11:15 pm — Oct 13 11:24 pm, Dover. Weather by CustomWeather, © 2019

Note: Actual official high and low records may vary slightly from our data, if they occured in-between our weather recording intervals... More about our weather records

Advertising

Dover Weather History for the Previous 24 Hours

Scroll right to see more
 ConditionsComfort  
Time TempWeatherWind HumidityBarometerVisibility
11:24 pm
Sun, Oct 13
63 °FLight rain. Low clouds.3 mph100%30.00 "Hg8 mi
10:56 pm62 °FLight rain. Low clouds.3 mph98%30.00 "Hg7 mi
10:26 pm63 °FLight rain. Low clouds.3 mph94%30.00 "Hg5 mi
10:16 pm63 °FLight rain. Mostly cloudy.3 mph94%30.01 "Hg6 mi
9:56 pm62 °FLight rain. Mostly cloudy.No wind96%30.01 "Hg6 mi
9:06 pm63 °FRain. Low clouds.No wind94%30.02 "Hg6 mi
7:56 pm62 °FLight rain. Overcast.5 mph89%30.02 "Hg10 mi
7:25 pm63 °FOvercast.7 mph83%30.02 "Hg10 mi
7:16 pm63 °FLight rain. Overcast.6 mph83%30.02 "Hg10 mi
6:58 pm63 °FOvercast.7 mph83%30.02 "Hg10 mi
6:56 pm62 °FDrizzle. Overcast.6 mph86%30.02 "Hg10 mi
6:26 pm63 °FMostly cloudy.No wind83%30.04 "Hg10 mi
5:56 pm61 °FMostly cloudy.5 mph85%30.04 "Hg10 mi
5:07 pm61 °FMostly cloudy.3 mph83%30.04 "Hg10 mi
3:56 pm59 °FMostly cloudy.5 mph83%30.06 "Hg10 mi
3:44 pm57 °FMore clouds than sun.3 mph82%30.06 "Hg10 mi
2:56 pm60 °FLight rain. Partly sunny.8 mph81%30.07 "Hg10 mi
2:25 pm63 °FLight rain. Partly sunny.9 mph68%30.07 "Hg7 mi
1:56 pm64 °FPartly sunny.8 mph59%30.07 "Hg10 mi
12:56 pm64 °FOvercast.8 mph59%30.11 "Hg10 mi
11:56 am64 °FScattered clouds.7 mph56%30.11 "Hg10 mi
10:56 am61 °FScattered clouds.6 mph59%30.12 "Hg10 mi
9:56 am59 °FPassing clouds.10 mph56%30.12 "Hg10 mi
8:56 am55 °FOvercast.7 mph60%30.14 "Hg10 mi
7:56 am54 °FMostly cloudy.7 mph60%30.12 "HgN/A
6:56 am54 °FOvercast.8 mph60%30.11 "Hg10 mi
5:56 am53 °FPassing clouds.7 mph63%30.09 "Hg10 mi
4:56 am53 °FClear.9 mph64%30.08 "Hg10 mi
3:56 am54 °FPassing clouds.9 mph67%30.07 "Hg10 mi
2:56 am56 °FPassing clouds.8 mph64%30.06 "Hg10 mi
1:56 am58 °FClear.10 mph69%30.05 "Hg10 mi
12:56 am58 °FClear.No wind80%30.04 "Hg10 mi
Weather by CustomWeather, © 2019

See weather overview